Regional Weather Roundup
Issued by NWS

Home | Current Version | Previous Version | Graphics & Text | Print | Product List | Glossary On
Versions: 1 2 3 4 5 6 7 8 9 10 11 12 13 14 15 16 17 18 19 20 21 22 23 24 25 26 27 28 29 30 31 32 33 34 35 36 37 38 39 40 41 42 43 44 45 46 47 48 49 50
096
ASUS43 KLMK 300210
RWRKY
KENTUCKY REGIONAL WEATHER ROUNDUP
NATIONAL WEATHER SERVICE LOUISVILLE KY
1000 PM EDT FRI APR 29 2016

NOTE "FAIR" INDICATES FEW OR NO CLOUDS BELOW 12,000 FEET
WITH NO SIGNIFICANT WEATHER AND/OR OBSTRUCTIONS TO VISIBILITY.

KYZ001>023-026-027-061>063-070>075-300300-
WESTERN AND SOUTH CENTRAL KENTUCKY

CITY           SKY/WX    TMP DP  RH WIND       PRES   REMARKS
PADUCAH        CLOUDY    61  58  90 E8        29.92F
HENDERSON      CLOUDY    64  52  63 NE8       29.98S
OWENSBORO      CLOUDY    65  54  67 NE10      29.99F
HOPKINSVILLE   CLOUDY    64  61  90 E8        29.95S
BOWLING GREEN  CLOUDY    66  60  81 NE6       29.99R
GLASGOW        CLOUDY    65  58  78 NE3       30.01R
$$

KYZ024-025-028>034-038-045-046-053-300300-
NORTH CENTRAL KENTUCKY

CITY           SKY/WX    TMP DP  RH WIND       PRES   REMARKS
LOUISVILLE/SDF CLOUDY    67  49  52 NE9       30.04R
LOUISVILLE/LOU CLOUDY    66  50  56 NE5       30.05R
FORT KNOX      CLOUDY    64  52  66 N6        30.02R
$$

KYZ035>037-039>044-047>052-055>060-089>105-300300-
NORTHEAST KENTUCKY

CITY           SKY/WX    TMP DP  RH WIND       PRES   REMARKS
LEXINGTON      CLOUDY    63  50  62 N7        30.06R
COVINGTON      CLOUDY    62  49  62 NE13      30.08R
FRANKFORT      CLOUDY    65  49  56 N5        30.04S
$$

KYZ054-064>069-076>088-106>120-300300-
SOUTHEAST KENTUCKY

CITY           SKY/WX    TMP DP  RH WIND       PRES   REMARKS
JACKSON        PTCLDY    64  49  57 VRB3      30.05R
LONDON         CLOUDY    67  52  58 N10       30.03S
SOMERSET       CLOUDY    64  52  63 SW3       30.04R
MIDDLESBORO    CLOUDY    65  53  65 CALM      30.02F
MONTICELLO     PTCLDY    66  59  78 NW10      30.03R
$$





USA.gov is the U.S. government's official web portal to all federal, state and local government web resources and services.